星链-3110 (STARLINK-3110 )

导读

STARLINK-3110是美国SpaceX星链星座中的一员,于2021年11月13日发射入轨。星链计划旨在构建全球覆盖的低轨卫星互联网,该卫星运行在近地轨道,依托相控阵天线等技术,可提供低时延、高带宽的网络服务,既服务民用通信,也具备潜在军事应用价值,是星链全球组网进程中的重要组成部分。

Basic Information
目录编号:
49420
目录名称:
STARLINK-3110
国际标识:
2021-104N
轨道中心:
EARTH
卫星名称:
星链-3110
卫星全名:
星链-3110 (STARLINK-3110 )
卫星状态:
在轨 (已飞行1678 天)
发射日期:
2021-11-13 UTC
国别 :
美国 (US)
星等 :
--
Orbit Information
数据来源 国际轨道数据 AOE轨道数据
星历时间 2026-06-18T06:07:51+0800
11小时前
查看轨道信息
2026-06-16T04:00:00+0800
2天前
查看轨道信息
半长轴 6917.901km 6917.916km
偏心率 0.0001394 0.0002209
轨道倾角 53.160° 53.159°
近地点辐角 88.400° 60.621°
升交点赤经 139.060° 148.449°
平近点角 271.715° 107.407°
近地点 538.799km 538.25km
远地点 540.729km 541.308km
周期 95.438分钟 95.438分钟
每日圈数 15.088335 15.088284
Detailed Information
固有亮度:
5
最大亮度:
2.5
卫星平台:
Starlink v1.5
覆盖范围:
全球
运营商:
太空探索技术公司
运营商所在国:
美国
制造商(研发单位):
太空探索技术公司
制造商所在国:
美国
使用方式:
暂无
Satellite Introduction
星链(Starlink)计划是由太空探索技术公司(SpaceX)提出的一个巨型低轨卫星互联网星座项目,计划在2019年至2024年间在太空搭建由约1.2万颗卫星组成的“星链”网络,其中1584颗将部署在地球上空550千米处的近地轨道,并从2020年开始工作。该卫星仍在工作。
2D Orbit Map
3D Orbit Map
Orbit Altitude Analysis Chart
Orbit Inclination Analysis Chart
Orbit Comprehensive Analysis Chart
View Comprehensive Chart